DW3845 Weather Reports


Display with metric or nautical units.
time (UTC)temp
F
wind
direction
speed
MPH
gust
MPH
rain 1hr
in
rain 24hr
in
rain mn
in
humidity
%
barometer
mb
20260509224546 70 255 2.0 10.0 0.00 0.00 0.00 37 1003.8
20260509223048 71 246 1.0 8.0 0.00 0.00 0.00 36 1003.9
20260509221544 71 248 2.0 4.0 0.00 0.00 0.00 37 1004.1
20260509220041 70 211 1.0 3.0 0.00 0.00 0.00 37 1004.2
20260509214542 70 146 1.0 7.0 0.00 0.00 0.00 36 1004.4
20260509213041 70 168 3.0 6.0 0.00 0.00 0.00 38 1004.4
20260509211537 68 155 1.0 6.0 0.00 0.00 0.00 40 1004.7
20260509210040 68 231 5.0 8.0 0.00 0.00 0.00 40 1004.8
20260509204533 68 45 2.0 6.0 0.00 0.00 0.00 40 1004.8
20260509203029 67 274 0.0 4.0 0.00 0.00 0.00 42 1005.0
20260509201526 66 200 0.0 9.0 0.00 0.00 0.00 43 1005.1
20260509200023 65 269 2.0 7.0 0.00 0.00 0.00 43 1005.3
20260509194532 65 153 4.0 8.0 0.00 0.00 0.00 43 1005.4
20260509193023 65 166 2.0 6.0 0.00 0.00 0.00 44 1005.7
20260509191514 64 205 4.0 8.0 0.00 0.00 0.00 44 1005.8
20260509190013 63 180 1.0 8.0 0.00 0.00 0.00 44 1005.8
20260509184508 63 273 1.0 6.0 0.00 0.00 0.00 45 1005.9
20260509183012 61 169 2.0 9.0 0.00 0.00 0.00 47 1006.0
20260509181503 61 65 1.0 6.0 0.00 0.00 0.00 48 1005.9
20260509180002 60 147 1.0 6.0 0.00 0.00 0.00 50 1006.2
20260509174559 59 243 1.0 6.0 0.00 0.00 0.00 52 1006.0
20260509173106 58 141 1.0 6.0 0.00 0.00 0.00 51 1006.0
20260509171552 57 248 0.0 4.0 0.00 0.00 0.00 53 1006.0
20260509170051 56 170 1.0 6.0 0.00 0.00 0.00 53 1006.1
20260509164549 56 155 2.0 6.0 0.00 0.00 0.00 54 1006.2
20260509163046 55 255 1.0 4.0 0.00 0.00 0.00 55 1006.2
20260509161554 55 188 2.0 7.0 0.00 0.00 0.00 56 1006.1
20260509160042 54 32 0.0 1.0 0.00 0.00 0.00 57 1006.0
20260509154546 54 284 0.0 0.0 0.00 0.00 0.00 57 1006.1
20260509153052 52 242 0.0 0.0 0.00 0.00 0.00 63 1006.0
20260509151532 50 276 0.0 0.0 0.00 0.00 0.00 64 1005.9
20260509150031 48 243 0.0 0.0 0.00 0.00 0.00 69 1005.8
20260509144525 46 46 0.0 0.0 0.00 0.00 0.00 77 1005.9
20260509143025 45 46 0.0 0.0 0.00 0.00 0.00 80 1005.8
20260509141533 43 46 0.0 0.0 0.00 0.00 0.00 83 1005.6
20260509140020 41 46 0.0 0.0 0.00 0.00 0.00 85 1005.4
20260509134518 40 46 0.0 0.0 0.00 0.00 0.00 85 1005.2
20260509133016 38 46 0.0 0.0 0.00 0.00 0.00 85 1004.9
20260509131512 38 41 0.0 0.0 0.00 0.00 0.00 84 1004.7
20260509130012 37 46 0.0 0.0 0.00 0.00 0.00 85 1004.4
20260509124506 39 44 0.0 0.0 0.00 0.00 0.00 84 1004.1
20260509123004 39 44 0.0 0.0 0.00 0.00 0.00 85 1003.9
20260509121501 39 37 0.0 0.0 0.00 0.00 0.00 84 1003.7
20260509120058 40 42 0.0 0.0 0.00 0.00 0.00 84 1003.5
20260509114555 41 39 0.0 0.0 0.00 0.00 0.00 84 1003.3
20260509113053 42 39 0.0 0.0 0.00 0.00 0.00 84 1003.1
20260509111553 42 40 0.0 0.0 0.00 0.00 0.00 84 1002.9
20260509110049 42 46 0.0 0.0 0.00 0.00 0.00 84 1002.7
20260509104548 41 42 0.0 0.0 0.00 0.00 0.00 84 1002.4
20260509103051 41 41 0.0 0.0 0.00 0.00 0.00 83 1002.2
20260509101540 41 42 0.0 0.0 0.00 0.00 0.00 83 1002.0
20260509100039 41 44 0.0 0.0 0.00 0.00 0.00 83 1001.8
20260509094536 41 44 0.0 0.0 0.00 0.00 0.00 83 1001.6
20260509093034 42 47 0.0 0.0 0.00 0.00 0.00 83 1001.5
20260509091535 42 42 0.0 1.0 0.00 0.00 0.00 81 1001.4
20260509090037 42 32 0.0 0.0 0.00 0.00 0.00 81 1001.2
20260509084526 43 42 0.0 2.0 0.00 0.00 0.00 80 1001.0
20260509083024 44 46 0.0 0.0 0.00 0.00 0.00 80 1000.9
20260509081521 45 44 0.0 0.0 0.00 0.00 0.00 79 1000.8
20260509080017 45 40 0.0 0.0 0.00 0.00 0.00 79 1000.7
20260509074513 46 37 2.0 2.0 0.00 0.00 0.00 78 1000.7
20260509073025 46 27 2.0 3.0 0.00 0.00 0.00 79 1000.5
20260509071508 47 42 2.0 4.0 0.00 0.00 0.00 77 1000.4
20260509070004 47 44 2.0 3.0 0.00 0.00 0.00 75 1000.2
20260509064503 46 50 3.0 4.0 0.00 0.00 0.00 77 1000.1
20260509063003 46 44 3.0 3.0 0.00 0.00 0.00 78 999.8
20260509061601 46 38 2.0 3.0 0.00 0.00 0.00 78 999.8
20260509060117 47 42 2.0 3.0 0.00 0.00 0.00 77 999.7
20260509054558 47 32 2.0 3.0 0.00 0.00 0.00 77 999.7
20260509053116 47 44 0.0 2.0 0.00 0.00 0.00 77 999.7
20260509051609 47 46 0.0 0.0 0.00 0.00 0.00 77 999.6
20260509044559 49 41 0.0 0.0 0.00 0.00 0.00 74 999.4
20260509043059 50 26 0.0 0.0 0.00 0.00 0.00 72 999.5
20260509041556 52 51 0.0 0.0 0.00 0.00 0.00 67 999.5
20260509040107 53 46 0.0 0.0 0.00 0.00 0.00 68 999.2
20260509034555 53 41 0.0 0.0 0.00 0.00 0.00 66 999.2
20260509033116 54 40 0.0 0.0 0.00 0.00 0.00 68 999.1
20260509031553 55 44 0.0 0.0 0.00 0.00 0.00 65 998.9
20260509030054 57 34 0.0 0.0 0.00 0.00 0.00 57 998.8
20260509024603 59 266 0.0 0.0 0.00 0.00 0.00 48 998.7
20260509023052 61 266 0.0 1.0 0.00 0.00 0.00 46 998.6
20260509021552 62 205 1.0 6.0 0.00 0.00 0.00 42 998.5
20260509020105 62 274 0.0 1.0 0.00 0.00 0.00 46 998.4
20260509014550 63 257 0.0 0.0 0.00 0.00 0.00 44 998.4
20260509013049 63 250 0.0 2.0 0.00 0.00 0.00 42 998.4
20260509011555 64 229 2.0 6.0 0.00 0.00 0.00 39 998.4
20260509010049 65 243 2.0 6.0 0.00 0.00 0.00 41 998.4
20260509004550 65 118 2.0 8.0 0.00 0.00 0.00 44 998.4
20260509003055 65 225 2.0 5.0 0.00 0.00 0.00 44 998.4
20260509001547 66 134 4.0 6.0 0.00 0.00 0.00 44 998.5
20260509000046 66 251 3.0 8.0 0.00 0.00 0.00 44 998.5
20260508234546 65 236 2.0 6.0 0.00 0.00 0.00 45 998.6
20260508233047 65 179 2.0 8.0 0.00 0.00 0.00 44 998.6
20260508231548 65 253 1.0 5.0 0.00 0.00 0.00 43 998.6
20260508230045 65 256 0.0 5.0 0.00 0.00 0.00 45 998.6